www.pogodaiklimat.ru

Погода и климат >> Архив погоды >> Россия >> Ненецкий АО >> Индига


АРХИВ ПОГОДЫ в Индиге

Время (UTC), дата Ветер
(напр.,м/с)
 
Видим.   Явления Облачность Т
(С)
Тd
(С)
f
(%)
Тe
(С)
Тes
(С)
Комфортность P
(гПа)
Po
(гПа)
Тmin
(С)
Tmax
(С)
R
(мм)
R24
(мм)
S
(см)
12 16.07 СВ 8-10
{11}
4000 м слаб. ливневой дождь 10/10 300 м
[Cb cap]
+7.3 +7.1 99 +2 +2 1008.9 1008.4
15 16.07 СВ 7
{12}
2000 м слаб. морось 10/10 300 м
[St]
+6.9 +6.7 99 +2 +2 1006.3 1005.8 +11.8 11
18 16.07 СЗ 5 4000 м в посл. час морось {ливн. осадки} 10/10 300 м
[St]
+6.6 +6.6 100 +2 +2 1005.6 1005.1
21 16.07 З 8-11
{11}
10 км 10/10 300 м
[St]
+6.7 +6.7 100 +1 +1 1005.8 1005.3
00 17.07 З 9-12
{13}
4000 м слаб. морось 10/10 300 м
[St]
+6.7 +6.6 99 +1 +1 1007.8 1007.3
03 17.07 З 9-12
{13}
10 км {морось} 10/10 300 м
[St]
+7.9 +7.3 96 +3 +3 1009.9 1009.4 +6.6 0.0
06 17.07 З 10-13
{14}
20 км {морось} 9/9 600 м
[Sc]
+9.9 +7.6 86 +5 +5 1012.1 1011.6
09 17.07 З 9-12
{13}
20 км 9/9 300 м
[Cb cap]
+12.9 +8.8 76 +10 +10 1014.3 1013.8
12 17.07 З 8-10
{12}
20 км 8/8 600 м
[Cu med, cong]
+14.0 +8.4 69 +12 +12 1016.5 1016.0
15 17.07 З 6
{11}
20 км 3/1 600 м
[Cu med, cong Ci fib]
+13.0 +8.1 72 +11 +11 1017.6 1017.2 +14.4
18 17.07 З 2 20 км 1/0
[Ci fib]
+10.3 +8.0 86 +9 +9 1018.9 1018.4
21 17.07 Ю 1 20 км 3/0
[Ac trans]
+6.2 +5.3 94 +5 +5 1019.7 1019.2
00 18.07 В 2 20 км 3/0
[Ac trans]
+6.2 +6.1 99 +4 +4 1021.2 1020.7
03 18.07 В 2 20 км 3/0
[Ac trans Ci fib]
+9.8 +8.4 91 +8 +11 1021.5 1021.0 +5.8
06 18.07 С 2 20 км 8/0
[Ac trans Cs]
+12.0 +9.0 82 +11 +17 1021.8 1021.3
09 18.07 СВ 7 20 км 8/0
[Cs]
+12.9 +7.4 69 +10 +13 1021.9 1021.4
12 18.07 СВ 7 20 км 8/0
[Cs]
+12.2 +7.0 71 +9 +11 1021.9 1021.4
15 18.07 СВ 8-10
{11}
20 км 6/0
[Cc]
+12.1 +6.9 70 +9 +9 1021.4 1020.9 +13.2
18 18.07 СВ 5
{10}
20 км 6/0
[Ac trans Cc]
+9.1 +6.5 84 +6 +6 1021.1 1020.6
21 18.07 СВ 6 20 км 3/0
[Ci fib]
+8.0 +6.5 90 +4 +4 1020.2 1019.7
00 19.07 СВ 7 20 км 3/0
[Ac trans Ci fib]
+8.5 +7.0 90 +4 +4 1019.0 1018.5
03 19.07 СВ 8-11
{11}
20 км 9/0
[Ac trans Cs]
+8.6 +6.8 88 +4 +4 1017.5 1017.0 +7.9
06 19.07 СВ 11-13
{14}
20 км 9/6 300 м
[Cb cap Cs]
+9.1 +7.0 87 +4 +4 1016.0 1015.5
09 19.07 СВ 12-14
{17}
2000 м слаб. ливневой дождь 10/10 300 м
[Cb cap]
+7.8 +7.4 97 +2 +2 1014.4 1013.9
12 19.07 СВ 12-14
{15}
4000 м в посл. час ливневой дождь 10/10 300 м
[St]
+7.8 +7.1 95 +2 +2 1013.0 1012.5
15 19.07 СВ 12-14
{16}
2000 м слаб. ливневой дождь 10/10 300 м
[Cb cap]
+7.3 +7.2 99 +1 +1 1011.5 1011.0 +9.3 6
18 19.07 СВ 9-11
{15}
2000 м слаб. морось 10/10 300 м
[St]
+7.2 +7.2 100 +2 +2 1010.6 1010.1
21 19.07 СВ 8
{11}
2000 м слаб. морось 10/10 300 м
[St]
+7.1 +7.1 100 +2 +2 1010.0 1009.5
00 20.07 С 6
{10}
2000 м слаб. дождь {морось} 10/10 300 м
[Frnb Ns]
+7.2 +7.2 100 +3 +3 1009.5 1009.0
03 20.07 С 5 4000 м дымка {дождь} 10/10 300 м
[St]
+6.9 +6.9 100 +3 +3 1009.1 1008.6 +6.8 2
06 20.07 СЗ 4 2000 м слаб. морось {дождь} 10/10 300 м
[St]
+6.7 +6.7 100 +3 +3 1009.2 1008.7 +6.7
09 20.07 СЗ 5 2000 м слаб. морось 10/10 300 м
[St]
+7.0 +7.0 100 +3 +3 1009.7 1009.2
12 20.07 СЗ 5 1000 м слаб. морось 10/10 300 м
[St]
+6.7 +6.7 100 +2 +2 1011.2 1010.7
15 20.07 С 5 1000 м дымка 10/10 300 м
[St]
+6.6 +6.6 100 +2 +2 1012.0 1011.5 +7.1 0.5
18 20.07 С 5 4000 м дымка 10/10 300 м
[St]
+7.0 +6.9 99 +3 +3 1012.9 1012.4
21 20.07 С 5 4000 м дымка 10/10 300 м
[St]
+6.9 +6.7 99 +3 +3 1013.8 1013.3
00 21.07 С 4 2000 м дымка 10/10 300 м
[St]
+5.3 +5.3 100 +1 +1 1014.8 1014.3
03 21.07 С 3 10 км 10/10 300 м
[St]
+5.3 +5.3 100 +2 +2 1015.4 1014.9 +4.9
06 21.07 С 4 2000 м дымка 10/10 300 м
[St]
+4.9 +4.8 99 0 0 1016.5 1016.0
09 21.07 С 4 10 км 10/10 300 м
[St]
+5.4 +4.9 97 +1 +1 1017.1 1016.6
12 21.07 С 4 10 км 9/9 300 м
[St]
+5.8 +5.2 96 +2 +2 1018.0 1017.5
15 21.07 С 4 10 км 10/10 300 м
[St]
+5.2 +4.7 97 +1 +1 1018.3 1017.8 +5.8
18 21.07 СВ 3 2000 м дымка 10/10 300 м
[St]
+4.7 +4.7 100 +1 +1 1018.6 1018.1
21 21.07 СВ 4 200 м туман ?/? +5.0 +5.0 100 +1 +1 1019.1 1018.5
00 22.07 СВ 6 500 м туман ?/? +4.8 +4.8 100 -1 -1 1019.6 1019.1
03 22.07 В 6 2000 м дымка {туман} 10/10 300 м
[St]
+4.9 +4.9 100 -1 -1 1019.9 1019.4 +4.2
06 22.07 В 4 10 км {туман} 10/10 300 м
[St]
+6.8 +6.4 97 +3 +3 1019.9 1019.4
09 22.07 СВ 7 20 км 4/1 300 м
[St Ci sp]
+8.3 +7.4 94 +4 +6 1019.6 1019.1
12 22.07 СВ 8 4000 м дымка 8/8 300 м
[St]
+7.8 +7.1 95 +3 +3 1019.8 1019.3
15 22.07 СВ 7
{10}
2000 м дымка 9/9 300 м
[St]
+7.2 +7.0 99 +2 +2 1019.3 1018.8 +8.5
18 22.07 СВ 7
{11}
2000 м 10/10 300 м
[St]
+6.4 +6.4 100 +1 +1 1019.0 1018.5
21 22.07 СВ 4
{10}
4000 м в посл. час туман 10/10 300 м
[St]
+6.8 +6.8 100 +3 +3 1018.4 1017.9
00 23.07 СВ 5 20 км {туман} 9/3 300 м
[Cb cap Ac trans Cs]
+7.2 +7.1 99 +3 +3 1018.0 1017.5
03 23.07 В 5 20 км 9/4 300 м
[Cb cap Ac trans Cs]
+8.8 +8.0 95 +5 +6 1017.3 1016.8 +6.3
06 23.07 СВ 6 10 км 9/8 300 м
[Cb cap Ac trans]
+10.2 +8.8 91 +7 +7 1016.8 1016.3
09 23.07 СВ 4 10 км 9/8 300 м
[Cb cap Ac trans]
+11.2 +9.4 89 +9 +10 1017.0 1016.5

 

Местоположение метеостанции Индига (Ненецкий АО, Россия): широта 67.68 долгота 48.68 высота над уровнем моря 4 м.

В архиве по умолчанию представлена погода в Индиге за последнюю неделю. Архивные данные за месяц целиком и за предыдущие месяцы, начиная с января 2011 года, Вы можете получить, выбрав интересующий диапазон дат из раскрывающегося списка и нажав кнопку "Ввод!".


*Определитесь, кто Вы:
робот инопланетянин человек

Внимание! Время в таблицах - всемирное. Для получения местного времени необходимо прибавить поправку, которая равна 3 ч.

Смотрите также архив погоды в соседних городах и на ближайших метеорологических станциях:

Погода на Мысе Микулкин (Ненецкий АО, Россия) (86 км)
Погода в Нижней Пеше (Ненецкий АО, Россия) (111 км)
Погода в Коткино (Ненецкий АО, Россия) (127 км)
Погода в Бугрино (Ненецкий АО, Россия) (127 км)
Погода в Сенгейском Шаре (Ненецкий АО, Россия) (139 км)
Погода в Нарьян-Маре (Ненецкий АО, Россия) (184 км)
Погода в Шойне (Ненецкий АО, Россия) (191 км)
Погода на Колгуевом Острове (Ненецкий АО, Россия) (206 км)
Погода в Неси (Ненецкий АО, Россия) (210 км)
Погода в Окуневом Носу (Коми, Россия) (233 км)

Пояснения к столбцам:

Ветер - указаны скорость ветра в м/с - средняя за 10 мин, порывы в срок и между сроками (в фигурных скобках) и направление, откуда дует ветер: С - северный, СВ - северо-восточный, В - восточный, ЮВ - юго-восточный, Ю - южный, ЮЗ - юго-западный, З - западный, СЗ - северо-западный.
Видимость - горизонтальная дальность видимости в метрах или километрах. При видимости от 1 до 10 км при отсутствии осадков обычно наблюдается дымка, при ухудшении видимости до 1 км и менее - туман. В сухую погоду видимость может ухудшаться дымом, пылью или мглою.
Явления - указаны атмосферные явления, наблюдавшиеся в срок или в последний час перед сроком; фигурными скобками обозначены явления, наблюдавшиеся между сроками (за 1-3 часа до срока); квадратными скобками обозначены град или гололедные отложения с указанием их диаметра в мм.
Облачность - указаны через наклонную черту общая и нижняя облачность в баллах и высота нижней границы облаков в метрах; квадратными скобками обозначены формы облаков: Ci - перистые, Cs - перисто-слоистые, Cc - перисто-кучевые, Ac - высококучевые, As - высокослоистые, Sc - слоисто-кучевые, Ns - слоисто-дождевые, Cu - кучевые, Cb - кучево-дождевые. Подробнее классификацию облаков см. в Атласе облаков (PDF).
T - Температура воздуха - температура, измеренная на высоте 2 м над землей.
Td - Температура точки росы - температура, при понижении до которой содержащийся в воздухе водяной пар достигнет насыщения.
f - Относительная влажность воздуха - влажноcть воздуха, измеренная на высоте 2 м над землей.
Te - Эффективная температура - температура, которую ощущает одетый по сезону человек в тени. Характеристика душности погоды. При расчете учитывается влияние влажности воздуха и скорости ветра на теплоощущения человека.
Tes - Эффективная температура на солнце - температура, которую ощущает человек, с поправкой на солнечный нагрев. Характеристика знойности погоды. Зависит от высоты солнца над горизонтом, облачности и скорости ветра. Ночью, в пасмурную погоду, а также при ветре 12 м/с и более поправка равна нулю.
P - Атмосферное давление - приведенное к уровню моря атмосферное давление.
Po - Атмосферное давление - измеренное на уровне метеостанции атмосферное давление.
Tmin - Минимальная температура - минимум температуры воздуха на высоте 2 м над землей.
Tmax - Максимальная температура - максимум температуры воздуха на высоте 2 м над землей.
R - Количество осадков - Количество выпавших осадков за период времени, мм. При наведении курсора мыши на число - период времени, за который выпало указанное количество осадков.
R24 - Количество осадков - Количество выпавших осадков за 24 часа, мм.
S - Снежный покров - Высота снежного покрова, см. При наведении курсора мыши на число - состояние снежного покрова и степень покрытия местности в баллах.